Location: Siloam Springs
(36.1880°N, 94.5400°W)
Time: 23:52:32
(UTC-06:00)

ISS - Visible Passes

Search period start: 03 December 2023 00:00
Search period end: 13 December 2023 00:00
Orbit: 415 x 417 km, 51.6° (Epoch: 04 December)

Date Brightness Start Highest point End Pass type
(mag) Time Alt. Az. Time Alt. Az. Time Alt. Az.
03 Dec -1.9 17:29:22 10° NNW 17:31:35 16° NNE 17:33:49 10° ENE visible
03 Dec -2.1 19:05:17 10° NW 19:07:15 32° WNW 19:07:15 32° WNW visible
04 Dec -3.8 18:16:46 10° NW 18:20:05 65° NE 18:21:42 27° ESE visible
05 Dec -3.1 17:28:20 10° NNW 17:31:28 36° NE 17:34:34 10° ESE visible
05 Dec -1.1 19:05:32 10° W 19:08:00 19° SW 19:09:35 14° SSW visible
06 Dec -2.1 18:16:24 10° WNW 18:19:30 36° SW 18:22:35 10° SSE visible
07 Dec -3.5 17:27:34 10° NW 17:30:54 73° SW 17:34:13 10° SE visible
08 Dec -0.2 18:17:19 10° WSW 18:18:31 12° SW 18:19:42 10° SSW visible
